Regional Weather Roundup
Issued by NWS Upton, NY

Current Version | Previous Version | Graphics & Text | Print | Product List | Glossary Off
Versions: 1 2 3 4 5 6 7 8 9 10 11 12 13 14 15 16 17 18 19 20 21 22 23 24 25 26 27 28

000
ASUS41 KOKX 040104
RWROKX

REGIONAL WEATHER ROUNDUP
NATIONAL WEATHER SERVICE NEW YORK NY
900 PM EDT TUE MAY 03 2016

NOTE: "FAIR" INDICATES FEW OR NO CLOUDS BELOW 12,000 FEET WITH NO
SIGNIFICANT WEATHER AND/OR OBSTRUCTIONS TO VISIBILITY.

NYZ071-072-176-178-NJZ106-104-040200-
NEW YORK CITY METRO AREA


CITY           SKY/WX    TMP DP  RH WIND       PRES   REMARKS
CENTRAL PARK   CLOUDY    52  49  89 E5        29.87R
LAGUARDIA APRT DRIZZLE   52  52 100 NE7       29.84S FOG
KENNEDY INTL   DRIZZLE   50  48  93 SE7       29.87R FOG
NEWARK/LIBERTY CLOUDY    52  49  90 S5        29.85R
BRNX BOT. GARD   N/A     50  48  93 E3        29.87F
TETERBORO      CLOUDY    53  48  83 E3        29.84R FOG
$$

NYZ177-179-078>081-040200-
LONG ISLAND NEW YORK

CITY           SKY/WX    TMP DP  RH WIND       PRES   REMARKS
FARMINGDALE    CLOUDY    50  49  96 SE7       29.86R FOG
ISLIP          NOT AVBL
SHIRLEY        CLOUDY    49  47  93 SE3       29.87R FOG
RIVERHEAD        N/A     50  48  93 CALM      29.86S
WESTHAMPTON    CLOUDY    45  45 100 E3        29.88R FOG
EAST HAMPTON   CLOUDY    47  46  95 E5        29.86R
MONTAUK POINT    N/A     48  45  89 E6        29.88R
$$

NYZ052-065-067-040200-
HUDSON VALLEY

CITY           SKY/WX    TMP DP  RH WIND       PRES   REMARKS
WHITE PLAINS   FOG       49  48  97 SE5       29.85R VSB 3/4
NEWBURGH       CLOUDY    50  50 100 NE6       29.85R FOG
MONTGOMERY     CLOUDY    51  50  96 CALM      29.84R
POUGHKEEPSIE   CLOUDY    53  50  89 NW3       29.84R FOG
ALBANY         LGT RAIN  53  43  68 CALM      29.84R
$$

NJZ001-105-106-008-010-013-015-019>022-104-040200-
NEW JERSEY

CITY           SKY/WX    TMP DP  RH WIND       PRES   REMARKS
NEWARK/LIBERTY CLOUDY    52  49  90 S5        29.85R
TETERBORO      CLOUDY    53  48  83 E3        29.84R FOG
CALDWELL       CLOUDY    53  49  86 E3        29.85R
MORRISTOWN     CLOUDY    52  52 100 S3        29.85R FOG
SOMERVILLE     CLOUDY    52  50  93 CALM      29.83R
SUSSEX         CLOUDY    51  49  92 CALM      29.84S FOG
ANDOVER          N/A     51  49  92 NE5       29.83S
TRENTON        CLOUDY    53  51  93 E6        29.83R
MILLVILLE      CLOUDY    53  50  89 E9        29.82R
ATLANTIC CITY  CLOUDY    50  49  96 NE12      29.82S FOG
WRIGHTSTOWN    NOT AVBL
TOMS RIVER     CLOUDY    48  45  87 E7        29.84S
BELMAR         CLOUDY    49  48  97 E10       29.85S FOG
$$

PAZ047>061-062-071-040200-
EASTERN PENNSYLVANIA

CITY           SKY/WX    TMP DP  RH WIND       PRES   REMARKS
PHILADELPHIA   MOCLDY    55  49  80 E9        29.83R
ALLENTOWN      CLOUDY    54  51  90 E7        29.81S
SCRANTON       CLOUDY    51  50  96 CALM      29.81S
$$

CTZ002-004>006-009-010-012-RIZ004-006-007-MAZ004-011-015-040200-
SOUTHERN NEW ENGLAND
 IN CT

CITY           SKY/WX    TMP DP  RH WIND       PRES   REMARKS
BRADLEY INTL   CLOUDY    50  47  89 NW3       29.85R
HARTFORD       CLOUDY    54  48  80 N5        29.86R
DANBURY        CLOUDY    52  49  89 SE3       29.86R
WTRBRY/OXFORD  CLOUDY    50  46  87 CALM      29.86
BRIDGEPORT     CLOUDY    50  48  93 E3        29.86R
MERIDEN        CLOUDY    53  49  86 CALM      29.86R
NEW HAVEN      CLOUDY    49  47  93 E6        29.86R
CHESTER        CLOUDY    50  48  93 S3        29.86R FOG
GROTON         CLOUDY    50  50 100 E6        29.86R
WILLIMANTIC    CLOUDY    51  46  83 CALM      29.86R

 IN RI

CITY           SKY/WX    TMP DP  RH WIND       PRES   REMARKS
PROVIDENCE     CLOUDY    48  41  76 NE8       29.88R
BLOCK ISLAND   CLOUDY    47  44  90 E9        29.87R
WESTERLY       CLOUDY    50  46  86 CALM      29.87R

 IN MA

CITY           SKY/WX    TMP DP  RH WIND       PRES   REMARKS
BOSTON         CLOUDY    47  41  80 E6        29.89R
WORCESTER      CLOUDY    45  43  93 E6        29.85S
WESTFIELD      CLOUDY    50  46  86 CALM      29.86R
PROVINCETOWN   CLOUDY    45  43  93 NE7       29.88S
NANTUCKET      CLOUDY    47  44  90 NE9       29.84R
$$

ANZ330-335-338-340-345-350-353-355-040200-
COASTAL MARINE OBSERVATIONS


STATION/POSITION TIME  SKY/WX   TEMP    WIND        PRES    VSBY  WAVE
                                AIR SEA DIR/SP/G                  HT/PER
                 (UTC)          (F)     (DEG/KT/KT) (MB)    (MI)  (FT/S)
NY HARB ENTRANCE 2350            49 51  100/ 12/ 12 1010.2          4/ 5
20S FIRE ISLAND  2350            48 48   60/ 12/ 12 1010.5          4/ 6
GREAT SOUTH BAY  0030            49 55  110/ 12/ 14   N/A
23 SSW MONTAUK P 0050            47 47   70/ 12/ 16 1010.2          4/ 5
15 E BARNEGAT LI 0022               50                N/A           5/ 6
HUDSON CANYON    2350            48 49              1008.8          5/ 6
KINGS POINT      0000               54              1010.3
EXECUTION ROCKS  NOT AVBL
CENTRAL LI SOUND 0000            49     110/  8/ 10   N/A           1
EASTERN LI SOUND 0000            48 48  100/  8/ 10   N/A
ROBBINS REEF     0000                               1009.8
$$


>>>>>>>>>>>>>>>>>>>>>>>>>>>> KEY <<<<<<<<<<<<<<<<<<<<<<<<<<<
>                                                          <
>     SKY/WX - SKY CONDITION/PRESENT WEATHER               <
>     TMP    - TEMPERATURE IN FAHRENHEIT                   <
>     DP     - DEWPOINT IN FAHRENHEIT                      <
>     RH     - RELATIVE HUMIDITY IN PERCENT                <
>     WIND   - DIRECTION AND SPEED IN MPH                  <
>     PRES   - MEAN SEA LEVEL PRESSURE IN INCHES OF HG     <
>     WCI    - WIND CHILL INDEX                            <
>     VSB    - VISIBILITY IN MILES                         <
>     HX     - HEAT INDEX                                  <
>     TC     - TEMPERATURE IN CELSIUS                      <
>     VRB    - VARIABLE WIND DIRECTION                     <
>                                                          <
>>>>>>>>>>>>>>>>>>>>>>>>>>>> KEY <<<<<<<<<<<<<<<<<<<<<<<<<<<






USA.gov is the U.S. government's official web portal to all federal, state and local government web resources and services.